This is the latest recevied weather packets stored in our database for station/object IK1PCD-11. If no packets are shown the sender has not sent any weather packets the latest 10 day(s).
| Time | Temp. | Humidity | Pressure | Rain* | Wind** | Luminosity | Snow |
|---|---|---|---|---|---|---|---|
| 1777932800 | 9.44° C | 78% | 1015.8 hPa | - | - | - | - |
| 1777931900 | 9.44° C | 79% | 1016 hPa | - | - | - | - |
| 1777931000 | 9.44° C | 80% | 1016.1 hPa | - | - | - | - |
| 1777930100 | 9.44° C | 81% | 1016.2 hPa | - | - | - | - |
| 1777929200 | 9.44° C | 81% | 1016.1 hPa | - | - | - | - |
| 1777928300 | 9.44° C | 81% | 1016.2 hPa | - | - | - | - |
| 1777927400 | 8.89° C | 81% | 1016.4 hPa | - | - | - | - |
| 1777924699 | 8.89° C | 80% | 1016.5 hPa | - | - | - | - |
| 1777923799 | 9.44° C | 80% | 1016.5 hPa | - | - | - | - |
| 1777922899 | 9.44° C | 80% | 1016.5 hPa | - | - | - | - |
| 1777921999 | 9.44° C | 78% | 1016.6 hPa | - | - | - | - |
| 1777921099 | 9.44° C | 77% | 1016.6 hPa | - | - | - | - |
| 1777920199 | 10° C | 70% | 1016.1 hPa | - | - | - | - |
| 1777919299 | 10° C | 70% | 1015.8 hPa | - | - | - | - |
| 1777918395 | 10.56° C | 65% | 1015.9 hPa | - | - | - | - |
| 1777917495 | 11.67° C | 66% | 1015.9 hPa | - | - | - | - |
| 1777916595 | 12.22° C | 65% | 1015.9 hPa | - | - | - | - |
| 1777915695 | 13.33° C | 60% | 1016 hPa | - | - | - | - |
| 1777914794 | 12.78° C | 59% | 1016.1 hPa | - | - | - | - |
| 1777913894 | 13.33° C | 54% | 1016.1 hPa | - | - | - | - |
| 1777910293 | 14.44° C | 54% | 1016.3 hPa | - | - | - | - |
| 1777909393 | 15° C | 57% | 1016.4 hPa | - | - | - | - |
| 1777908493 | 16.11° C | 54% | 1016.4 hPa | - | - | - | - |
| 1777907593 | 16.11° C | 52% | 1016.4 hPa | - | - | - | - |
| 1777906693 | 15.56° C | 59% | 1016.5 hPa | - | - | - | - |
* Rain since midnight (hover to see other rain measurements)
** Current wind speed in m/s (hover to see current wind gust speed)